Time,TemperatureF,DewpointF,PressureIn,WindDirection,WindDirectionDegrees,WindSpeedMPH,WindSpeedGustMPH,Humidity,HourlyPrecipIn,Conditions,Clouds,dailyrainin,SoftwareType,DateUTC
2013-01-08 00:22:00,15.0,15.0,-100.00,SSE,163,0.0,-999.0,100,0.00,,,-99.99,,2013-01-08 05:22:00,
2013-01-08 00:33:00,15.0,15.0,-100.00,SSE,163,0.0,-999.0,100,0.00,,,-99.99,,2013-01-08 05:33:00,
2013-01-08 00:43:00,15.0,15.0,-100.00,SSE,163,0.0,-999.0,100,0.00,,,-99.99,,2013-01-08 05:43:00,
2013-01-08 01:22:00,14.0,14.0,-100.00,NE,34,0.0,-999.0,100,0.00,,,-99.99,,2013-01-08 06:22:00,
2013-01-08 01:33:00,14.0,14.0,-100.00,NE,34,0.0,-999.0,100,0.00,,,-99.99,,2013-01-08 06:33:00,
2013-01-08 01:42:00,14.0,14.0,-100.00,NE,34,0.0,-999.0,100,0.00,,,-99.99,,2013-01-08 06:42:00,
2013-01-08 02:22:00,20.0,20.0,-100.00,North,352,1.0,-999.0,100,0.00,,,-99.99,,2013-01-08 07:22:00,
2013-01-08 02:32:00,20.0,20.0,-100.00,North,352,1.0,-999.0,100,0.00,,,-99.99,,2013-01-08 07:32:00,
2013-01-08 02:42:00,20.0,20.0,-100.00,North,352,1.0,-999.0,100,0.00,,,-99.99,,2013-01-08 07:42:00,
2013-01-08 03:22:00,25.0,25.0,-100.00,NNW,341,2.0,-999.0,100,0.00,,,-99.99,,2013-01-08 08:22:00,
2013-01-08 03:32:00,25.0,25.0,-100.00,NNW,341,2.0,-999.0,100,0.00,,,-99.99,,2013-01-08 08:32:00,
2013-01-08 03:42:00,25.0,25.0,-100.00,NNW,341,2.0,-999.0,100,0.00,,,-99.99,,2013-01-08 08:42:00,
2013-01-08 04:12:00,23.0,23.0,-100.00,NE,36,1.0,-999.0,100,0.00,,,-99.99,,2013-01-08 09:12:00,
2013-01-08 04:22:00,23.0,23.0,-100.00,NE,36,1.0,-999.0,100,0.00,,,-99.99,,2013-01-08 09:22:00,
2013-01-08 04:33:00,23.0,23.0,-100.00,NE,36,1.0,-999.0,100,0.00,,,-99.99,,2013-01-08 09:33:00,
2013-01-08 04:42:00,23.0,23.0,-100.00,NE,36,1.0,-999.0,100,0.00,,,-99.99,,2013-01-08 09:42:00,
2013-01-08 05:22:00,18.0,18.0,-100.00,SSE,161,1.0,-999.0,100,0.00,,,-99.99,,2013-01-08 10:22:00,
2013-01-08 05:33:00,18.0,18.0,-100.00,SSE,161,1.0,-999.0,100,0.00,,,-99.99,,2013-01-08 10:33:00,
2013-01-08 05:42:00,18.0,18.0,-100.00,SSE,161,1.0,-999.0,100,0.00,,,-99.99,,2013-01-08 10:42:00,
2013-01-08 06:23:00,17.0,17.0,-100.00,SSW,199,2.0,-999.0,100,0.00,,,-99.99,,2013-01-08 11:23:00,
2013-01-08 06:33:00,17.0,17.0,-100.00,SSW,199,2.0,-999.0,100,0.00,,,-99.99,,2013-01-08 11:33:00,
2013-01-08 06:42:00,17.0,17.0,-100.00,SSW,199,2.0,-999.0,100,0.00,,,-99.99,,2013-01-08 11:42:00,
2013-01-08 07:22:00,17.0,17.0,-100.00,South,189,1.0,-999.0,100,0.00,,,-99.99,,2013-01-08 12:22:00,
2013-01-08 07:33:00,17.0,17.0,-100.00,South,189,1.0,-999.0,100,0.00,,,-99.99,,2013-01-08 12:33:00,
2013-01-08 07:43:00,17.0,17.0,-100.00,South,189,1.0,-999.0,100,0.00,,,-99.99,,2013-01-08 12:43:00,
2013-01-08 08:22:00,20.0,20.0,-100.00,NE,39,0.0,-999.0,100,0.00,,,-99.99,,2013-01-08 13:22:00,
2013-01-08 08:33:00,20.0,20.0,-100.00,NE,39,0.0,-999.0,100,0.00,,,-99.99,,2013-01-08 13:33:00,
2013-01-08 08:43:00,20.0,20.0,-100.00,NE,39,0.0,-999.0,100,0.00,,,-99.99,,2013-01-08 13:43:00,
2013-01-08 09:23:00,29.0,26.0,-100.00,North,10,3.0,-999.0,87,0.00,,,-99.99,,2013-01-08 14:23:00,
2013-01-08 09:33:00,29.0,26.0,-100.00,North,10,3.0,-999.0,87,0.00,,,-99.99,,2013-01-08 14:33:00,
2013-01-08 09:43:00,29.0,26.0,-100.00,North,10,3.0,-999.0,87,0.00,,,-99.99,,2013-01-08 14:43:00,
2013-01-08 10:23:00,35.0,27.0,-100.00,NNE,32,4.0,-999.0,71,0.00,,,-99.99,,2013-01-08 15:23:00,
2013-01-08 10:33:00,35.0,27.0,-100.00,NNE,32,4.0,-999.0,71,0.00,,,-99.99,,2013-01-08 15:33:00,
2013-01-08 10:43:00,35.0,27.0,-100.00,NNE,32,4.0,-999.0,71,0.00,,,-99.99,,2013-01-08 15:43:00,
2013-01-08 11:23:00,40.0,26.0,-100.00,NNE,21,6.0,-999.0,58,0.00,,,-99.99,,2013-01-08 16:23:00,
2013-01-08 11:34:00,40.0,26.0,-100.00,NNE,21,6.0,-999.0,58,0.00,,,-99.99,,2013-01-08 16:34:00,
2013-01-08 11:43:00,40.0,26.0,-100.00,NNE,21,6.0,-999.0,58,0.00,,,-99.99,,2013-01-08 16:43:00,
2013-01-08 12:23:00,42.0,24.0,-100.00,NNE,31,7.0,-999.0,50,0.00,,,-99.99,,2013-01-08 17:23:00,
2013-01-08 12:34:00,42.0,24.0,-100.00,NNE,31,7.0,-999.0,50,0.00,,,-99.99,,2013-01-08 17:34:00,
2013-01-08 12:43:00,42.0,24.0,-100.00,NNE,31,7.0,-999.0,50,0.00,,,-99.99,,2013-01-08 17:43:00,
2013-01-08 13:23:00,42.0,25.0,-100.00,NE,41,8.0,-999.0,50,0.00,,,-99.99,,2013-01-08 18:23:00,
2013-01-08 13:33:00,42.0,25.0,-100.00,NE,41,8.0,-999.0,50,0.00,,,-99.99,,2013-01-08 18:33:00,
2013-01-08 13:43:00,42.0,25.0,-100.00,NE,41,8.0,-999.0,50,0.00,,,-99.99,,2013-01-08 18:43:00,
2013-01-08 14:23:00,44.0,25.0,-100.00,NNE,28,5.0,-999.0,47,0.00,,,-99.99,,2013-01-08 19:23:00,
2013-01-08 14:33:00,44.0,25.0,-100.00,NNE,28,5.0,-999.0,47,0.00,,,-99.99,,2013-01-08 19:33:00,
2013-01-08 14:43:00,44.0,25.0,-100.00,NNE,28,5.0,-999.0,47,0.00,,,-99.99,,2013-01-08 19:43:00,
2013-01-08 15:23:00,45.0,25.0,-100.00,NNE,27,5.0,-999.0,45,0.00,,,-99.99,,2013-01-08 20:23:00,
2013-01-08 15:33:00,45.0,25.0,-100.00,NNE,27,5.0,-999.0,45,0.00,,,-99.99,,2013-01-08 20:33:00,
2013-01-08 15:43:00,45.0,25.0,-100.00,NNE,27,5.0,-999.0,45,0.00,,,-99.99,,2013-01-08 20:43:00,
2013-01-08 16:23:00,44.0,25.0,-100.00,North,11,6.0,-999.0,47,0.00,,,-99.99,,2013-01-08 21:23:00,
2013-01-08 16:33:00,44.0,25.0,-100.00,North,11,6.0,-999.0,47,0.00,,,-99.99,,2013-01-08 21:33:00,
2013-01-08 16:43:00,44.0,25.0,-100.00,North,11,6.0,-999.0,47,0.00,,,-99.99,,2013-01-08 21:43:00,
2013-01-08 17:23:00,40.0,25.0,-100.00,NNE,22,4.0,-999.0,56,0.00,,,-99.99,,2013-01-08 22:23:00,
2013-01-08 17:33:00,40.0,25.0,-100.00,NNE,22,4.0,-999.0,56,0.00,,,-99.99,,2013-01-08 22:33:00,
2013-01-08 17:43:00,40.0,25.0,-100.00,NNE,22,4.0,-999.0,56,0.00,,,-99.99,,2013-01-08 22:43:00,
2013-01-08 18:23:00,34.0,25.0,-100.00,NNW,332,0.0,-999.0,70,0.00,,,-99.99,,2013-01-08 23:23:00,
2013-01-08 18:33:00,34.0,25.0,-100.00,NNW,332,0.0,-999.0,70,0.00,,,-99.99,,2013-01-08 23:33:00,
2013-01-08 18:43:00,34.0,25.0,-100.00,NNW,332,0.0,-999.0,70,0.00,,,-99.99,,2013-01-08 23:43:00,
2013-01-08 19:22:00,29.0,25.0,-100.00,West,280,1.0,-999.0,83,0.00,,,-99.99,,2013-01-09 00:22:00,
2013-01-08 19:33:00,29.0,25.0,-100.00,West,280,1.0,-999.0,83,0.00,,,-99.99,,2013-01-09 00:33:00,
2013-01-08 19:43:00,29.0,25.0,-100.00,West,280,1.0,-999.0,83,0.00,,,-99.99,,2013-01-09 00:43:00,
2013-01-08 20:22:00,28.0,25.0,-100.00,North,9,1.0,-999.0,89,0.00,,,-99.99,,2013-01-09 01:22:00,
2013-01-08 20:33:00,28.0,25.0,-100.00,North,9,1.0,-999.0,89,0.00,,,-99.99,,2013-01-09 01:33:00,
2013-01-08 20:42:00,28.0,25.0,-100.00,North,9,1.0,-999.0,89,0.00,,,-99.99,,2013-01-09 01:42:00,
2013-01-08 21:23:00,27.0,27.0,-100.00,NW,314,0.0,-999.0,99,0.00,,,-99.99,,2013-01-09 02:23:00,
2013-01-08 21:33:00,27.0,27.0,-100.00,NW,314,0.0,-999.0,99,0.00,,,-99.99,,2013-01-09 02:33:00,
2013-01-08 21:43:00,27.0,27.0,-100.00,NW,314,0.0,-999.0,99,0.00,,,-99.99,,2013-01-09 02:43:00,
2013-01-08 22:22:00,27.0,26.0,-100.00,SSW,204,1.0,-999.0,97,0.00,,,-99.99,,2013-01-09 03:22:00,
2013-01-08 22:33:00,27.0,26.0,-100.00,SSW,204,1.0,-999.0,97,0.00,,,-99.99,,2013-01-09 03:33:00,
2013-01-08 22:43:00,27.0,26.0,-100.00,SSW,204,1.0,-999.0,97,0.00,,,-99.99,,2013-01-09 03:43:00,
2013-01-08 23:23:00,26.0,25.0,-100.00,SSE,148,0.0,-999.0,97,0.00,,,-99.99,,2013-01-09 04:23:00,
2013-01-08 23:33:00,26.0,25.0,-100.00,SSE,148,0.0,-999.0,97,0.00,,,-99.99,,2013-01-09 04:33:00,
2013-01-08 23:43:00,26.0,25.0,-100.00,SSE,148,0.0,-999.0,97,0.00,,,-99.99,,2013-01-09 04:43:00,